| time (UTC) | temp F | wind direction | speed MPH | gust MPH | rain 1hr in | rain 24hr in | rain mn in | humidity % | barometer mb |
| 20260904094601 | 76 | 246 | 4.0 | 8.0 | 0.00 | 0.01 | 0.00 | 88 | 1011.6 |
| 20260904094103 | 76 | 246 | 4.0 | 8.0 | 0.00 | 0.01 | 0.00 | 88 | 1011.8 |
| 20260904093559 | 76 | 243 | 2.0 | 8.0 | 0.00 | 0.01 | 0.00 | 89 | 1011.9 |
| 20260904093059 | 76 | 242 | 3.0 | 7.0 | 0.00 | 0.01 | 0.00 | 89 | 1011.9 |
| 20260904092602 | 76 | 242 | 2.0 | 4.0 | 0.00 | 0.01 | 0.00 | 89 | 1011.8 |
| 20260904092058 | 76 | 242 | 0.0 | 2.0 | 0.00 | 0.01 | 0.00 | 90 | 1011.7 |
| 20260904091558 | 75 | 242 | 0.0 | 3.0 | 0.00 | 0.01 | 0.00 | 90 | 1011.7 |
| 20260904091102 | 76 | 242 | 0.0 | 4.0 | 0.00 | 0.01 | 0.00 | 91 | 1011.7 |
| 20260904090556 | 76 | 242 | 2.0 | 4.0 | 0.00 | 0.01 | 0.00 | 91 | 1011.8 |
| 20260904090056 | 76 | 242 | 0.0 | 0.0 | 0.00 | 0.01 | 0.00 | 91 | 1011.8 |
| 20260904085555 | 76 | 242 | 0.0 | 2.0 | 0.00 | 0.02 | 0.00 | 91 | 1011.7 |
| 20260904085055 | 76 | 242 | 0.0 | 3.0 | 0.00 | 0.02 | 0.00 | 92 | 1011.9 |
| 20260904084554 | 76 | 242 | 0.0 | 3.0 | 0.00 | 0.02 | 0.00 | 92 | 1011.8 |
| 20260904084157 | 76 | 242 | 0.0 | 3.0 | 0.00 | 0.02 | 0.00 | 92 | 1011.7 |
| 20260904083554 | 76 | 242 | 0.0 | 3.0 | 0.00 | 0.02 | 0.00 | 92 | 1011.7 |
| 20260904083053 | 76 | 242 | 1.0 | 3.0 | 0.00 | 0.02 | 0.00 | 92 | 1011.9 |
| 20260904082551 | 76 | 242 | 0.0 | 2.0 | 0.00 | 0.02 | 0.00 | 92 | 1011.9 |
| 20260904082050 | 76 | 242 | 0.0 | 2.0 | 0.00 | 0.02 | 0.00 | 92 | 1011.9 |
| 20260904081554 | 76 | 242 | 0.0 | 3.0 | 0.00 | 0.02 | 0.00 | 93 | 1012.0 |
| 20260904081046 | 76 | 242 | 0.0 | 4.0 | 0.00 | 0.02 | 0.00 | 93 | 1012.3 |
| 20260904080545 | 76 | 242 | 0.0 | 4.0 | 0.00 | 0.02 | 0.00 | 93 | 1012.1 |
| 20260904080047 | 76 | 242 | 0.0 | 1.0 | 0.00 | 0.02 | 0.00 | 93 | 1012.1 |
| 20260904075544 | 76 | 242 | 0.0 | 0.0 | 0.00 | 0.08 | 0.00 | 92 | 1011.9 |
| 20260904075043 | 76 | 242 | 0.0 | 0.0 | 0.00 | 0.08 | 0.00 | 92 | 1011.8 |
| 20260904074542 | 77 | 242 | 0.0 | 3.0 | 0.00 | 0.08 | 0.00 | 92 | 1011.7 |
| 20260904074042 | 77 | 242 | 0.0 | 5.0 | 0.00 | 0.08 | 0.00 | 91 | 1011.8 |
| 20260904073546 | 77 | 242 | 1.0 | 5.0 | 0.00 | 0.08 | 0.00 | 91 | 1011.8 |
| 20260904073041 | 78 | 242 | 1.0 | 4.0 | 0.00 | 0.08 | 0.00 | 90 | 1011.6 |
| 20260904072540 | 78 | 242 | 0.0 | 3.0 | 0.00 | 0.08 | 0.00 | 90 | 1011.8 |
| 20260904072041 | 78 | 242 | 0.0 | 5.0 | 0.00 | 0.08 | 0.00 | 90 | 1011.7 |
| 20260904071540 | 78 | 242 | 2.0 | 5.0 | 0.00 | 0.08 | 0.00 | 90 | 1011.8 |
| 20260904071041 | 78 | 242 | 2.0 | 5.0 | 0.00 | 0.08 | 0.00 | 90 | 1011.8 |
| 20260904070540 | 78 | 242 | 0.0 | 8.0 | 0.00 | 0.08 | 0.00 | 90 | 1011.9 |
| 20260904070040 | 78 | 242 | 3.0 | 8.0 | 0.00 | 0.08 | 0.00 | 90 | 1012.0 |
| 20260904065538 | 78 | 242 | 2.0 | 8.0 | 0.00 | 0.10 | 0.00 | 90 | 1011.9 |
| 20260904065038 | 78 | 232 | 3.0 | 6.0 | 0.00 | 0.10 | 0.00 | 90 | 1011.8 |
| 20260904064538 | 78 | 223 | 1.0 | 4.0 | 0.00 | 0.10 | 0.00 | 91 | 1011.8 |
| 20260904064038 | 78 | 223 | 1.0 | 3.0 | 0.00 | 0.10 | 0.00 | 91 | 1011.8 |
| 20260904063540 | 78 | 223 | 1.0 | 4.0 | 0.00 | 0.10 | 0.00 | 91 | 1011.9 |
| 20260904063040 | 77 | 223 | 1.0 | 4.0 | 0.00 | 0.10 | 0.00 | 92 | 1011.9 |
| 20260904062536 | 77 | 223 | 0.0 | 3.0 | 0.00 | 0.10 | 0.00 | 92 | 1011.9 |
| 20260904062035 | 77 | 223 | 1.0 | 3.0 | 0.00 | 0.10 | 0.00 | 93 | 1012.1 |
| 20260904061543 | 77 | 223 | 1.0 | 4.0 | 0.00 | 0.10 | 0.00 | 93 | 1012.2 |
| 20260904061034 | 77 | 223 | 1.0 | 4.0 | 0.00 | 0.10 | 0.00 | 93 | 1012.2 |
| 20260904060537 | 77 | 223 | 2.0 | 5.0 | 0.00 | 0.10 | 0.00 | 92 | 1012.2 |
| 20260904060034 | 77 | 223 | 2.0 | 5.0 | 0.00 | 0.10 | 0.00 | 92 | 1012.3 |
| 20260904055532 | 77 | 223 | 2.0 | 5.0 | 0.00 | 0.20 | 0.00 | 92 | 1012.3 |
| 20260904055031 | 77 | 223 | 2.0 | 6.0 | 0.00 | 0.20 | 0.00 | 91 | 1012.5 |
| 20260904054533 | 78 | 223 | 4.0 | 6.0 | 0.00 | 0.20 | 0.00 | 92 | 1012.7 |
| 20260904054032 | 77 | 223 | 2.0 | 6.0 | 0.00 | 0.20 | 0.00 | 92 | 1012.8 |
| 20260904053533 | 77 | 223 | 3.0 | 5.0 | 0.00 | 0.20 | 0.00 | 92 | 1012.9 |
| 20260904053028 | 77 | 223 | 2.0 | 5.0 | 0.00 | 0.20 | 0.00 | 93 | 1012.9 |
| 20260904052528 | 77 | 223 | 1.0 | 4.0 | 0.00 | 0.20 | 0.00 | 92 | 1013.0 |
| 20260904052028 | 77 | 223 | 1.0 | 4.0 | 0.00 | 0.20 | 0.00 | 92 | 1013.1 |
| 20260904051526 | 77 | 223 | 0.0 | 3.0 | 0.00 | 0.20 | 0.00 | 92 | 1013.1 |
| 20260904051029 | 77 | 223 | 1.0 | 3.0 | 0.00 | 0.20 | 0.00 | 92 | 1013.1 |
| 20260904050525 | 77 | 223 | 1.0 | 4.0 | 0.00 | 0.20 | 0.00 | 91 | 1013.1 |
| 20260904050025 | 78 | 223 | 1.0 | 5.0 | 0.00 | 0.20 | 0.00 | 91 | 1013.2 |
| 20260904045524 | 78 | 223 | 1.0 | 5.0 | 0.00 | 0.20 | 0.00 | 91 | 1013.3 |
| 20260904045024 | 78 | 223 | 1.0 | 5.0 | 0.00 | 0.20 | 0.00 | 91 | 1013.4 |
| 20260904044535 | 78 | 223 | 2.0 | 5.0 | 0.00 | 0.20 | 0.00 | 91 | 1013.5 |
| 20260904044022 | 78 | 223 | 3.0 | 6.0 | 0.00 | 0.20 | 0.00 | 91 | 1013.5 |
| 20260904043521 | 78 | 223 | 3.0 | 6.0 | 0.00 | 0.20 | 0.00 | 91 | 1013.6 |
| 20260904043028 | 78 | 223 | 3.0 | 9.0 | 0.00 | 0.20 | 0.00 | 91 | 1013.6 |
| 20260904042519 | 78 | 223 | 4.0 | 9.0 | 0.00 | 0.20 | 0.00 | 91 | 1013.7 |
| 20260904042020 | 77 | 219 | 3.0 | 6.0 | 0.00 | 0.20 | 0.00 | 92 | 1013.8 |
| 20260904041519 | 77 | 219 | 3.0 | 6.0 | 0.00 | 0.20 | 0.00 | 92 | 1013.7 |
| 20260904041016 | 77 | 218 | 3.0 | 5.0 | 0.00 | 0.20 | 0.00 | 93 | 1013.8 |
| 20260904040516 | 77 | 218 | 2.0 | 4.0 | 0.00 | 0.20 | 0.00 | 93 | 1013.8 |
| 20260904040016 | 77 | 218 | 2.0 | 4.0 | 0.00 | 0.20 | 0.20 | 93 | 1013.7 |
| 20260904035514 | 77 | 218 | 0.0 | 5.0 | 0.00 | 0.20 | 0.20 | 92 | 1013.7 |
| 20260904035014 | 77 | 218 | 3.0 | 5.0 | 0.00 | 0.20 | 0.20 | 92 | 1013.7 |
| 20260904034514 | 77 | 218 | 2.0 | 4.0 | 0.00 | 0.20 | 0.20 | 92 | 1013.7 |
| 20260904034014 | 77 | 218 | 0.0 | 5.0 | 0.00 | 0.20 | 0.20 | 92 | 1013.7 |
| 20260904033514 | 77 | 218 | 3.0 | 5.0 | 0.00 | 0.20 | 0.20 | 92 | 1013.7 |
| 20260904033013 | 77 | 218 | 2.0 | 4.0 | 0.00 | 0.20 | 0.20 | 92 | 1013.7 |
| 20260904032512 | 77 | 218 | 0.0 | 5.0 | 0.00 | 0.20 | 0.20 | 91 | 1013.7 |
| 20260904032012 | 78 | 218 | 1.0 | 8.0 | 0.00 | 0.20 | 0.20 | 90 | 1013.6 |
| 20260904031512 | 78 | 218 | 4.0 | 8.0 | 0.00 | 0.20 | 0.20 | 91 | 1013.7 |
| 20260904031012 | 78 | 216 | 4.0 | 7.0 | 0.00 | 0.20 | 0.20 | 91 | 1013.7 |
| 20260904030512 | 77 | 195 | 2.0 | 6.0 | 0.00 | 0.20 | 0.20 | 91 | 1013.7 |
| 20260904030018 | 77 | 195 | 0.0 | 0.0 | 0.00 | 0.20 | 0.20 | 90 | 1013.8 |
| 20260904025513 | 77 | 195 | 0.0 | 0.0 | 0.00 | 0.20 | 0.20 | 91 | 1014.0 |
| 20260904025012 | 77 | 195 | 0.0 | 0.0 | 0.00 | 0.20 | 0.20 | 91 | 1013.9 |
| 20260904024513 | 77 | 195 | 0.0 | 0.0 | 0.00 | 0.20 | 0.20 | 91 | 1014.0 |
| 20260904024013 | 77 | 195 | 0.0 | 0.0 | 0.00 | 0.20 | 0.20 | 92 | 1014.1 |
| 20260904023512 | 77 | 195 | 0.0 | 2.0 | 0.00 | 0.20 | 0.20 | 92 | 1014.0 |
| 20260904023010 | 76 | 195 | 0.0 | 3.0 | 0.00 | 0.20 | 0.20 | 93 | 1014.3 |
| 20260904022510 | 76 | 195 | 1.0 | 3.0 | 0.00 | 0.20 | 0.20 | 93 | 1014.5 |
| 20260904022009 | 76 | 195 | 0.0 | 3.0 | 0.00 | 0.20 | 0.20 | 93 | 1014.4 |
| 20260904021520 | 76 | 195 | 1.0 | 3.0 | 0.00 | 0.20 | 0.20 | 93 | 1014.5 |
| 20260904021012 | 76 | 195 | 2.0 | 3.0 | 0.00 | 0.20 | 0.20 | 94 | 1014.5 |
| 20260904020513 | 75 | 195 | 0.0 | 0.0 | 0.00 | 0.20 | 0.20 | 94 | 1014.6 |
| 20260904020009 | 75 | 195 | 0.0 | 0.0 | 0.00 | 0.20 | 0.20 | 93 | 1014.6 |
| 20260904015509 | 76 | 195 | 0.0 | 0.0 | 0.00 | 0.20 | 0.20 | 93 | 1014.5 |
| 20260904015009 | 76 | 195 | 0.0 | 0.0 | 0.00 | 0.20 | 0.20 | 93 | 1014.7 |
| 20260904014508 | 76 | 195 | 0.0 | 0.0 | 0.00 | 0.20 | 0.20 | 92 | 1014.6 |
| 20260904014008 | 76 | 195 | 0.0 | 0.0 | 0.00 | 0.20 | 0.20 | 92 | 1014.6 |
| 20260904013508 | 76 | 195 | 0.0 | 0.0 | 0.00 | 0.20 | 0.20 | 93 | 1014.4 |
| 20260904013007 | 76 | 195 | 0.0 | 0.0 | 0.00 | 0.20 | 0.20 | 93 | 1014.6 |
| 20260904012507 | 76 | 195 | 0.0 | 0.0 | 0.00 | 0.20 | 0.20 | 93 | 1014.6 |
| 20260904012007 | 76 | 195 | 0.0 | 1.0 | 0.00 | 0.20 | 0.20 | 93 | 1014.6 |
| 20260904011507 | 76 | 195 | 0.0 | 1.0 | 0.00 | 0.20 | 0.20 | 94 | 1014.5 |
| 20260904011008 | 76 | 195 | 0.0 | 0.0 | 0.00 | 0.20 | 0.20 | 94 | 1014.4 |
| 20260904010509 | 76 | 195 | 0.0 | 2.0 | 0.00 | 0.20 | 0.20 | 94 | 1014.4 |
| 20260904010006 | 76 | 195 | 0.0 | 4.0 | 0.00 | 0.20 | 0.20 | 94 | 1014.5 |
| 20260904005507 | 75 | 195 | 1.0 | 6.0 | 0.00 | 0.20 | 0.20 | 95 | 1014.6 |
| 20260904005005 | 75 | 195 | 3.0 | 6.0 | 0.00 | 0.20 | 0.20 | 95 | 1014.6 |
| 20260904004505 | 75 | 195 | 2.0 | 4.0 | 0.00 | 0.20 | 0.20 | 95 | 1014.7 |
| 20260904004007 | 75 | 195 | 0.0 | 0.0 | 0.00 | 0.20 | 0.20 | 95 | 1014.4 |
| 20260904003505 | 75 | 195 | 0.0 | 0.0 | 0.00 | 0.20 | 0.20 | 95 | 1014.4 |
| 20260904003005 | 75 | 195 | 0.0 | 0.0 | 0.00 | 0.20 | 0.20 | 95 | 1014.3 |
| 20260904002504 | 75 | 195 | 0.0 | 0.0 | 0.00 | 0.20 | 0.20 | 95 | 1014.4 |
| 20260904002004 | 75 | 195 | 0.0 | 0.0 | 0.00 | 0.20 | 0.20 | 94 | 1014.4 |
| 20260904001505 | 75 | 195 | 0.0 | 0.0 | 0.00 | 0.20 | 0.20 | 94 | 1014.3 |
| 20260904001005 | 75 | 195 | 0.0 | 0.0 | 0.00 | 0.20 | 0.20 | 94 | 1014.1 |
| 20260904000504 | 76 | 195 | 0.0 | 2.0 | 0.00 | 0.20 | 0.20 | 94 | 1014.0 |
| 20260904000005 | 76 | 195 | 0.0 | 3.0 | 0.00 | 0.20 | 0.20 | 94 | 1014.1 |
| 20260903235506 | 76 | 195 | 1.0 | 4.0 | 0.00 | 0.20 | 0.20 | 93 | 1014.0 |
| 20260903235003 | 76 | 195 | 0.0 | 3.0 | 0.00 | 0.20 | 0.20 | 93 | 1014.0 |
| 20260903234513 | 76 | 195 | 0.0 | 4.0 | 0.00 | 0.20 | 0.20 | 93 | 1014.0 |
| 20260903234003 | 76 | 195 | 1.0 | 4.0 | 0.00 | 0.20 | 0.20 | 93 | 1014.0 |
| 20260903233506 | 76 | 195 | 0.0 | 1.0 | 0.00 | 0.20 | 0.20 | 93 | 1013.9 |
| 20260903233002 | 76 | 195 | 0.0 | 1.0 | 0.00 | 0.20 | 0.20 | 93 | 1013.7 |
| 20260903232502 | 76 | 195 | 0.0 | 3.0 | 0.00 | 0.20 | 0.20 | 93 | 1013.9 |
| 20260903232001 | 76 | 195 | 0.0 | 2.0 | 0.00 | 0.20 | 0.20 | 92 | 1013.8 |
| 20260903231502 | 76 | 195 | 0.0 | 4.0 | 0.00 | 0.20 | 0.20 | 92 | 1013.9 |
| 20260903231001 | 77 | 195 | 1.0 | 6.0 | 0.00 | 0.20 | 0.20 | 92 | 1014.0 |
| 20260903230501 | 77 | 195 | 2.0 | 7.0 | 0.00 | 0.20 | 0.20 | 91 | 1014.0 |
| 20260903230106 | 77 | 195 | 3.0 | 7.0 | 0.00 | 0.20 | 0.20 | 91 | 1014.0 |
| 20260903225601 | 77 | 195 | 3.0 | 6.0 | 0.00 | 0.20 | 0.20 | 90 | 1014.2 |
| 20260903225100 | 77 | 195 | 2.0 | 6.0 | 0.00 | 0.20 | 0.20 | 90 | 1014.1 |
| 20260903224600 | 78 | 195 | 2.0 | 6.0 | 0.00 | 0.20 | 0.20 | 89 | 1014.2 |
| 20260903224100 | 78 | 195 | 2.0 | 8.0 | 0.00 | 0.20 | 0.20 | 89 | 1014.3 |
| 20260903223600 | 78 | 195 | 4.0 | 9.0 | 0.00 | 0.20 | 0.20 | 88 | 1014.3 |
| 20260903223100 | 78 | 195 | 6.0 | 9.0 | 0.00 | 0.20 | 0.20 | 87 | 1014.2 |
| 20260903222602 | 78 | 198 | 4.0 | 7.0 | 0.00 | 0.20 | 0.20 | 87 | 1014.2 |
| 20260903222100 | 78 | 198 | 3.0 | 7.0 | 0.00 | 0.20 | 0.20 | 87 | 1014.2 |
| 20260903221600 | 79 | 198 | 1.0 | 6.0 | 0.00 | 0.20 | 0.20 | 87 | 1014.1 |
| 20260903221058 | 79 | 198 | 1.0 | 6.0 | 0.00 | 0.20 | 0.20 | 87 | 1014.0 |
| 20260903220558 | 79 | 197 | 2.0 | 6.0 | 0.00 | 0.20 | 0.20 | 87 | 1014.1 |
| 20260903220120 | 79 | 195 | 2.0 | 5.0 | 0.00 | 0.20 | 0.20 | 86 | 1014.1 |
| 20260903215558 | 79 | 195 | 1.0 | 5.0 | 0.00 | 0.20 | 0.20 | 86 | 1014.1 |
| 20260903215058 | 79 | 196 | 2.0 | 5.0 | 0.00 | 0.20 | 0.20 | 86 | 1014.1 |
| 20260903214557 | 79 | 196 | 2.0 | 5.0 | 0.00 | 0.20 | 0.20 | 86 | 1014.0 |
| 20260903214100 | 79 | 200 | 2.0 | 5.0 | 0.00 | 0.20 | 0.20 | 85 | 1014.0 |
| 20260903213600 | 79 | 199 | 2.0 | 8.0 | 0.00 | 0.20 | 0.20 | 85 | 1014.0 |
| 20260903213057 | 79 | 200 | 3.0 | 9.0 | 0.00 | 0.20 | 0.20 | 86 | 1014.0 |
| 20260903212557 | 79 | 215 | 4.0 | 10.0 | 0.00 | 0.20 | 0.20 | 84 | 1014.0 |
| 20260903212057 | 80 | 191 | 4.0 | 10.0 | 0.00 | 0.20 | 0.20 | 83 | 1014.0 |
| 20260903211602 | 79 | 197 | 5.0 | 12.0 | 0.00 | 0.20 | 0.20 | 83 | 1014.1 |
| 20260903211056 | 79 | 181 | 5.0 | 12.0 | 0.00 | 0.20 | 0.20 | 83 | 1014.0 |
| 20260903210557 | 80 | 174 | 6.0 | 12.0 | 0.00 | 0.20 | 0.20 | 83 | 1014.1 |
| 20260903210111 | 80 | 215 | 3.0 | 13.0 | 0.00 | 0.20 | 0.20 | 82 | 1014.0 |
| 20260903205556 | 80 | 196 | 6.0 | 13.0 | 0.00 | 0.28 | 0.20 | 82 | 1014.1 |
| 20260903205056 | 80 | 214 | 5.0 | 13.0 | 0.00 | 0.28 | 0.20 | 82 | 1014.1 |
| 20260903204555 | 80 | 186 | 5.0 | 10.0 | 0.00 | 0.28 | 0.20 | 82 | 1014.1 |
| 20260903204055 | 81 | 162 | 3.0 | 9.0 | 0.00 | 0.28 | 0.20 | 82 | 1014.0 |
| 20260903203559 | 80 | 118 | 2.0 | 13.0 | 0.00 | 0.28 | 0.20 | 82 | 1014.0 |
| 20260903203056 | 80 | 196 | 7.0 | 15.0 | 0.00 | 0.28 | 0.20 | 80 | 1014.0 |
| 20260903202554 | 83 | 190 | 7.0 | 15.0 | 0.00 | 0.28 | 0.20 | 75 | 1014.0 |
| 20260903202054 | 84 | 209 | 7.0 | 12.0 | 0.00 | 0.28 | 0.20 | 72 | 1014.0 |
| 20260903201554 | 83 | 225 | 8.0 | 14.0 | 0.00 | 0.28 | 0.20 | 72 | 1014.0 |
| 20260903201052 | 83 | 189 | 6.0 | 17.0 | 0.00 | 0.28 | 0.20 | 72 | 1014.1 |
| 20260903200552 | 83 | 209 | 8.0 | 17.0 | 0.00 | 0.28 | 0.20 | 73 | 1014.1 |
| 20260903200052 | 83 | 232 | 9.0 | 17.0 | 0.00 | 0.28 | 0.20 | 72 | 1014.1 |
| 20260903195551 | 83 | 224 | 7.0 | 12.0 | 0.00 | 0.45 | 0.20 | 74 | 1014.2 |
| 20260903195051 | 83 | 235 | 4.0 | 12.0 | 0.00 | 0.45 | 0.20 | 74 | 1014.2 |
| 20260903194551 | 83 | 226 | 8.0 | 16.0 | 0.00 | 0.45 | 0.20 | 73 | 1014.3 |
| 20260903194053 | 83 | 238 | 9.0 | 13.0 | 0.00 | 0.45 | 0.20 | 73 | 1014.2 |
| 20260903193552 | 83 | 227 | 8.0 | 18.0 | 0.00 | 0.45 | 0.20 | 74 | 1014.1 |
| 20260903193050 | 83 | 238 | 9.0 | 18.0 | 0.00 | 0.45 | 0.20 | 74 | 1014.3 |
| 20260903192548 | 83 | 231 | 12.0 | 18.0 | 0.00 | 0.45 | 0.20 | 72 | 1014.4 |
| 20260903192050 | 83 | 237 | 12.0 | 18.0 | 0.00 | 0.45 | 0.20 | 72 | 1014.4 |
| 20260903191553 | 82 | 219 | 9.0 | 16.0 | 0.00 | 0.45 | 0.20 | 75 | 1014.4 |
| 20260903191046 | 82 | 217 | 9.0 | 16.0 | 0.00 | 0.45 | 0.20 | 76 | 1014.4 |
| 20260903190548 | 82 | 235 | 9.0 | 17.0 | 0.00 | 0.45 | 0.20 | 75 | 1014.5 |
| 20260903190044 | 82 | 233 | 11.0 | 18.0 | 0.00 | 0.45 | 0.20 | 75 | 1014.7 |
| 20260903185547 | 82 | 227 | 9.0 | 18.0 | 0.00 | 0.45 | 0.20 | 76 | 1014.8 |
| 20260903185044 | 82 | 215 | 10.0 | 19.0 | 0.00 | 0.45 | 0.20 | 76 | 1014.8 |
| 20260903184552 | 82 | 248 | 12.0 | 19.0 | 0.00 | 0.45 | 0.20 | 76 | 1014.7 |
| 20260903184046 | 82 | 245 | 7.0 | 15.0 | 0.00 | 0.45 | 0.20 | 76 | 1014.8 |
| 20260903183543 | 82 | 238 | 7.0 | 16.0 | 0.00 | 0.45 | 0.20 | 76 | 1014.8 |
| 20260903183044 | 82 | 234 | 9.0 | 16.0 | 0.00 | 0.45 | 0.20 | 75 | 1014.8 |
| 20260903182546 | 82 | 236 | 12.0 | 16.0 | 0.00 | 0.45 | 0.20 | 75 | 1014.8 |
| 20260903182043 | 82 | 216 | 7.0 | 16.0 | 0.00 | 0.45 | 0.20 | 77 | 1014.9 |
| 20260903181541 | 81 | 217 | 6.0 | 15.0 | 0.00 | 0.45 | 0.20 | 78 | 1014.9 |
| 20260903181041 | 81 | 225 | 7.0 | 14.0 | 0.00 | 0.45 | 0.20 | 78 | 1015.0 |
| 20260903180540 | 81 | 236 | 8.0 | 17.0 | 0.00 | 0.45 | 0.20 | 78 | 1015.0 |
| 20260903180048 | 81 | 215 | 10.0 | 17.0 | 0.00 | 0.45 | 0.20 | 77 | 1015.2 |
| 20260903175541 | 82 | 229 | 8.0 | 17.0 | 0.00 | 0.45 | 0.20 | 76 | 1015.1 |
| 20260903175039 | 81 | 224 | 7.0 | 14.0 | 0.00 | 0.45 | 0.20 | 77 | 1015.1 |
| 20260903174538 | 81 | 225 | 7.0 | 11.0 | 0.00 | 0.45 | 0.20 | 78 | 1015.2 |
| 20260903174038 | 81 | 230 | 7.0 | 11.0 | 0.00 | 0.45 | 0.20 | 78 | 1015.2 |
| 20260903173537 | 81 | 253 | 8.0 | 16.0 | 0.00 | 0.45 | 0.20 | 78 | 1015.3 |
| 20260903173036 | 81 | 218 | 8.0 | 16.0 | 0.00 | 0.45 | 0.20 | 77 | 1015.3 |
| 20260903172536 | 81 | 242 | 9.0 | 14.0 | 0.00 | 0.45 | 0.20 | 77 | 1015.5 |
| 20260903172036 | 81 | 233 | 7.0 | 15.0 | 0.00 | 0.45 | 0.20 | 77 | 1015.5 |
| 20260903171535 | 81 | 210 | 7.0 | 14.0 | 0.00 | 0.45 | 0.20 | 77 | 1015.6 |
| 20260903171034 | 81 | 252 | 7.0 | 16.0 | 0.00 | 0.45 | 0.20 | 74 | 1015.7 |
| 20260903170537 | 82 | 280 | 9.0 | 16.0 | 0.00 | 0.45 | 0.20 | 73 | 1015.7 |
| 20260903170036 | 81 | 294 | 9.0 | 15.0 | 0.00 | 0.45 | 0.20 | 73 | 1015.7 |
| 20260903165533 | 81 | 291 | 8.0 | 16.0 | 0.00 | 0.45 | 0.20 | 75 | 1015.7 |
| 20260903165031 | 80 | 225 | 9.0 | 16.0 | 0.00 | 0.45 | 0.20 | 78 | 1015.9 |
| 20260903164530 | 79 | 244 | 9.0 | 16.0 | 0.00 | 0.45 | 0.20 | 83 | 1015.8 |
| 20260903164030 | 80 | 244 | 10.0 | 14.0 | 0.00 | 0.45 | 0.20 | 82 | 1015.8 |
| 20260903163527 | 79 | 229 | 8.0 | 13.0 | 0.00 | 0.45 | 0.20 | 83 | 1015.7 |
| 20260903163031 | 79 | 228 | 6.0 | 12.0 | 0.00 | 0.45 | 0.20 | 84 | 1015.6 |
| 20260903162527 | 78 | 224 | 7.0 | 14.0 | 0.00 | 0.45 | 0.20 | 84 | 1015.7 |
| 20260903162026 | 79 | 238 | 9.0 | 14.0 | 0.00 | 0.45 | 0.20 | 83 | 1015.9 |
| 20260903161525 | 78 | 239 | 6.0 | 16.0 | 0.00 | 0.45 | 0.20 | 85 | 1016.0 |
| 20260903161023 | 77 | 251 | 9.0 | 16.0 | 0.00 | 0.45 | 0.20 | 86 | 1016.2 |
| 20260903160526 | 77 | 176 | 9.0 | 16.0 | 0.00 | 0.45 | 0.20 | 86 | 1016.3 |
| 20260903160022 | 77 | 215 | 11.0 | 16.0 | 0.00 | 0.45 | 0.20 | 87 | 1016.4 |
| 20260903155521 | 77 | 197 | 9.0 | 14.0 | 0.00 | 0.45 | 0.20 | 86 | 1016.5 |
| 20260903155021 | 77 | 217 | 9.0 | 15.0 | 0.00 | 0.45 | 0.20 | 86 | 1016.4 |
| 20260903154521 | 76 | 231 | 8.0 | 15.0 | 0.00 | 0.45 | 0.20 | 87 | 1016.5 |
| 20260903154022 | 76 | 223 | 9.0 | 15.0 | 0.00 | 0.45 | 0.20 | 87 | 1016.6 |
| 20260903153521 | 76 | 202 | 8.0 | 15.0 | 0.00 | 0.45 | 0.20 | 87 | 1016.6 |
| 20260903153020 | 76 | 236 | 9.0 | 14.0 | 0.00 | 0.45 | 0.20 | 87 | 1016.7 |
| 20260903152521 | 76 | 227 | 6.0 | 15.0 | 0.00 | 0.45 | 0.20 | 86 | 1016.7 |
| 20260903152019 | 76 | 214 | 8.0 | 15.0 | 0.00 | 0.45 | 0.20 | 86 | 1016.5 |
| 20260903151519 | 76 | 249 | 6.0 | 12.0 | 0.00 | 0.45 | 0.20 | 87 | 1016.6 |
| 20260903151017 | 76 | 239 | 7.0 | 12.0 | 0.00 | 0.45 | 0.20 | 87 | 1016.7 |
| 20260903150516 | 76 | 230 | 8.0 | 14.0 | 0.00 | 0.45 | 0.20 | 87 | 1016.7 |
| 20260903150019 | 75 | 232 | 9.0 | 14.0 | 0.00 | 0.45 | 0.20 | 88 | 1016.7 |
| 20260903145514 | 75 | 227 | 9.0 | 15.0 | 0.00 | 0.45 | 0.20 | 88 | 1016.6 |
| 20260903145015 | 75 | 241 | 9.0 | 13.0 | 0.00 | 0.45 | 0.20 | 87 | 1016.7 |
| 20260903144513 | 75 | 229 | 8.0 | 19.0 | 0.01 | 0.45 | 0.20 | 87 | 1016.8 |
| 20260903144013 | 75 | 242 | 11.0 | 19.0 | 0.01 | 0.45 | 0.20 | 88 | 1016.8 |
| 20260903143510 | 75 | 221 | 10.0 | 16.0 | 0.01 | 0.45 | 0.20 | 89 | 1016.8 |
| 20260903143010 | 75 | 240 | 9.0 | 18.0 | 0.01 | 0.45 | 0.20 | 89 | 1016.6 |
| 20260903142508 | 75 | 231 | 10.0 | 16.0 | 0.01 | 0.45 | 0.20 | 90 | 1016.7 |
| 20260903142006 | 74 | 234 | 7.0 | 15.0 | 0.01 | 0.45 | 0.20 | 90 | 1016.8 |
| 20260903141509 | 74 | 236 | 8.0 | 14.0 | 0.01 | 0.45 | 0.20 | 90 | 1016.7 |
| 20260903141004 | 74 | 232 | 6.0 | 15.0 | 0.01 | 0.45 | 0.20 | 91 | 1016.9 |
| 20260903140503 | 74 | 234 | 9.0 | 15.0 | 0.01 | 0.45 | 0.20 | 90 | 1016.8 |
| 20260903140005 | 74 | 243 | 7.0 | 15.0 | 0.01 | 0.45 | 0.20 | 91 | 1016.9 |
| 20260903135501 | 74 | 239 | 9.0 | 15.0 | 0.01 | 0.45 | 0.20 | 91 | 1016.9 |
| 20260903135100 | 74 | 252 | 6.0 | 12.0 | 0.01 | 0.45 | 0.20 | 91 | 1017.0 |
| 20260903134558 | 73 | 252 | 7.0 | 12.0 | 0.00 | 0.44 | 0.19 | 92 | 1017.2 |
| 20260903134057 | 73 | 252 | 6.0 | 10.0 | 0.00 | 0.44 | 0.19 | 92 | 1017.1 |
| 20260903133556 | 73 | 252 | 6.0 | 11.0 | 0.00 | 0.44 | 0.19 | 92 | 1016.9 |
| 20260903133108 | 73 | 252 | 5.0 | 11.0 | 0.00 | 0.44 | 0.19 | 92 | 1016.9 |
| 20260903132556 | 73 | 252 | 4.0 | 8.0 | 0.00 | 0.44 | 0.19 | 93 | 1017.0 |
| 20260903132052 | 73 | 252 | 4.0 | 10.0 | 0.00 | 0.44 | 0.19 | 93 | 1017.2 |
| 20260903131605 | 72 | 252 | 5.0 | 12.0 | 0.00 | 0.44 | 0.19 | 93 | 1017.3 |
| 20260903131049 | 72 | 252 | 3.0 | 12.0 | 0.00 | 0.44 | 0.19 | 94 | 1017.2 |
| 20260903130550 | 72 | 252 | 4.0 | 8.0 | 0.00 | 0.44 | 0.19 | 94 | 1017.3 |
| 20260903130054 | 72 | 252 | 3.0 | 7.0 | 0.00 | 0.44 | 0.19 | 94 | 1017.3 |
| 20260903125545 | 72 | 252 | 5.0 | 8.0 | 0.00 | 0.44 | 0.19 | 95 | 1017.4 |
| 20260903125044 | 72 | 252 | 4.0 | 8.0 | 0.00 | 0.44 | 0.19 | 95 | 1017.1 |
| 20260903124542 | 72 | 252 | 3.0 | 8.0 | 0.00 | 0.44 | 0.19 | 95 | 1017.2 |
| 20260903124046 | 72 | 252 | 3.0 | 7.0 | 0.00 | 0.44 | 0.19 | 95 | 1017.1 |
| 20260903123542 | 72 | 252 | 2.0 | 7.0 | 0.00 | 0.44 | 0.19 | 96 | 1017.2 |
| 20260903123047 | 71 | 252 | 4.0 | 8.0 | 0.00 | 0.44 | 0.19 | 96 | 1017.3 |
| 20260903122542 | 71 | 252 | 3.0 | 9.0 | 0.00 | 0.44 | 0.19 | 96 | 1017.7 |
| 20260903122042 | 72 | 252 | 2.0 | 9.0 | 0.00 | 0.44 | 0.19 | 96 | 1017.7 |
| 20260903121541 | 72 | 252 | 2.0 | 7.0 | 0.00 | 0.44 | 0.19 | 96 | 1017.7 |
| 20260903121041 | 72 | 252 | 2.0 | 7.0 | 0.00 | 0.44 | 0.19 | 97 | 1017.7 |
| 20260903120543 | 72 | 252 | 3.0 | 7.0 | 0.00 | 0.44 | 0.19 | 97 | 1017.8 |
| 20260903120041 | 71 | 252 | 3.0 | 5.0 | 0.00 | 0.44 | 0.19 | 97 | 1017.6 |
| 20260903115538 | 71 | 252 | 2.0 | 4.0 | 0.00 | 0.44 | 0.19 | 97 | 1017.3 |
| 20260903115042 | 71 | 252 | 1.0 | 4.0 | 0.00 | 0.44 | 0.19 | 97 | 1017.5 |
| 20260903114537 | 71 | 252 | 2.0 | 5.0 | 0.00 | 0.44 | 0.19 | 97 | 1017.6 |
| 20260903114037 | 71 | 252 | 2.0 | 5.0 | 0.00 | 0.44 | 0.19 | 97 | 1017.4 |
| 20260903113536 | 71 | 252 | 2.0 | 4.0 | 0.00 | 0.44 | 0.19 | 97 | 1017.4 |
| 20260903113041 | 71 | 252 | 1.0 | 4.0 | 0.00 | 0.44 | 0.19 | 97 | 1017.1 |
| 20260903112536 | 71 | 252 | 0.0 | 3.0 | 0.00 | 0.44 | 0.19 | 97 | 1017.0 |
| 20260903112036 | 71 | 252 | 0.0 | 0.0 | 0.00 | 0.44 | 0.19 | 97 | 1017.0 |
| 20260903111535 | 71 | 252 | 0.0 | 3.0 | 0.00 | 0.44 | 0.19 | 97 | 1017.2 |
| 20260903111035 | 71 | 252 | 1.0 | 4.0 | 0.00 | 0.44 | 0.19 | 97 | 1017.4 |
| 20260903110535 | 71 | 252 | 0.0 | 7.0 | 0.00 | 0.44 | 0.19 | 97 | 1017.5 |
| 20260903110036 | 71 | 252 | 2.0 | 7.0 | 0.00 | 0.44 | 0.19 | 97 | 1017.5 |
| 20260903105535 | 71 | 252 | 3.0 | 7.0 | 0.00 | 0.44 | 0.19 | 97 | 1017.4 |
| 20260903105035 | 71 | 252 | 2.0 | 10.0 | 0.00 | 0.44 | 0.19 | 97 | 1017.3 |
| 20260903104533 | 71 | 252 | 3.0 | 10.0 | 0.00 | 0.44 | 0.19 | 97 | 1017.4 |
| 20260903104032 | 71 | 252 | 6.0 | 10.0 | 0.00 | 0.44 | 0.19 | 98 | 1017.3 |
| 20260903103531 | 71 | 252 | 7.0 | 12.0 | 0.00 | 0.44 | 0.19 | 98 | 1017.4 |
| 20260903103030 | 71 | 252 | 6.0 | 12.0 | 0.00 | 0.44 | 0.19 | 98 | 1017.4 |
| 20260903102529 | 71 | 252 | 6.0 | 14.0 | 0.00 | 0.44 | 0.19 | 98 | 1017.4 |
| 20260903102029 | 71 | 252 | 5.0 | 14.0 | 0.00 | 0.44 | 0.19 | 98 | 1017.5 |
| 20260903101525 | 71 | 266 | 4.0 | 12.0 | 0.00 | 0.44 | 0.19 | 98 | 1017.0 |
| 20260903101024 | 71 | 270 | 7.0 | 12.0 | 0.00 | 0.44 | 0.19 | 98 | 1017.1 |
| 20260903100523 | 71 | 282 | 3.0 | 12.0 | 0.00 | 0.44 | 0.19 | 98 | 1017.2 |
| 20260903100022 | 71 | 259 | 2.0 | 13.0 | 0.00 | 0.44 | 0.19 | 98 | 1017.1 |
| 20260903095519 | 71 | 259 | 5.0 | 13.0 | 0.00 | 0.44 | 0.19 | 98 | 1017.1 |
| 20260903095021 | 71 | 261 | 5.0 | 11.0 | 0.00 | 0.44 | 0.19 | 98 | 1017.0 |